Location: Gwatt
(46.7204°N, 7.6223°E)
Time: 17:01:34
(UTC+00:00)

deb Explorer IX - Pass Details

Date: 25 January 2021
Orbit: 537 x 1102 km, 38.8° (Epoch: 04 March)

Event Time Altitude Azimuth Distance (km) Brightness Sun altitude
Rises 15:56:20 0° 216° (SW) 3,816 ? 3.1°
Reaches altitude 10° 15:59:48 10° 202° (SSW) 2,794 ? 2.6°
Maximum altitude 16:04:41 22° 156° (SSE) 1,966 ? 1.9°
Drops below altitude 10° 16:09:11 10° 108° (ESE) 2,529 ? 1.2°
Sets 16:12:08 0° 93° (E) 3,361 ? 0.8°
